Tracking 27112 objects as of 26-Mar-2023
HD Live streaming from Space Station
objects crossing your sky now

MARISAT 1

Track MARISAT 1 now!
MARISAT 1 is classified as:


NORAD ID: 8697
Int'l Code: 1976-017A
Perigee: 36,036.6 km
Apogee: 36,153.8 km
Inclination: 8.6 °
Period: 1,451.5 minutes
Semi major axis: 42466 km
RCS: 5.8066 m2 (large)
Launch date: February 19, 1976
Source: United States (US)
Launch site: AIR FORCE EASTERN TEST RANGE (AFETR)
Your satellite tracking list
Your tracking list is empty




NASA's NSSDC Master Catalog

Two Line Element Set (TLE):
1 08697U 76017A   23084.74529161  .00000052  00000-0  00000-0 0  9990
2 08697   8.5977 304.3915 0013796 164.9884 200.5684  0.99205977170404
Source of the keplerian elements: AFSPC